Retour au catalogue

FENGYUN 1C DEB

ActifSSO
NORAD 30080·DEBRIS·🇨🇳 China

Lancé May 10, 1999 depuis Taiyuan Satellite Launch Center

Loading…

Prochains Passages (prochaines 24 heures)

TLE

FraisSource: Space-Track

Époque: Sep 14, 2026, 10:06 UTC

1 30080U 99025QH  26257.42112632  .00000221  00000-0  13519-3 0  9996
2 30080  98.7284 234.8152 0132858 358.2925 163.5003 14.11010503 11250

Suivez FENGYUN 1C DEB en temps réel avec AllMySat

Download on the App Store